Weather History for Chillicothe, MO

Change the Weather History Date:

Thursday, February 13, 2014

  Actual Average (KIRK) Record (KIRK)
Temperature  
Mean Temperature 30 °F 29 °F  
Max Temperature 46 °F 38 °F 70 °F (1921)
Min Temperature 15 °F 20 °F -8 °F (1986)
Degree Days  
Heating Degree Days 34 36  
Month to date heating degree days 483  
Since 1 July heating degree days 4030  
Cooling Degree Days 0 0  
Month to date cooling degree days 0  
Year to date cooling degree days 0  
Moisture  
Dew Point 22 °F    
Average Humidity 69    
Maximum Humidity 88    
Minimum Humidity 47    
Precipitation  
Precipitation 0.00 in 0.06 in 0.80 in (1949)
Month to date precipitation 0.73  
Year to date precipitation 2.00  
Sea Level Pressure  
Sea Level Pressure 29.86 in    
Wind  
Wind Speed 4 mph (SW)    
Max Wind Speed 13 mph    
Max Gust Speed 18 mph    
T = Trace of Precipitation, MM = Missing Value Source: NWS Daily Summary

Daily Weather History Graph

Daily Weather History Graph

Search for Another Location

Airport:

Trip Planner

Search our weather history database for the weather conditions in past years. The results will help you decide how hot, cold, wet, or windy it might be!

Date:

Astronomy

Feb. 13, 2014 Rise Set
Actual Time 7:09 AM CST 5:48 PM CST
Civil Twilight 6:41 AM CST 6:16 PM CST
Nautical Twilight 6:09 AM CST 6:47 PM CST
Astronomical Twilight 5:38 AM CST 7:19 PM CST
Moon 4:57 PM CST (2/13) 6:02 AM CST (2/13)
Length of Visible Light 11h 34m
Length of Day
10h 38m
Waxing Gibbous, 99% of the Moon is Illuminated
Feb 13
Waxing Gibbous
Feb 14
Full
Feb 22
Last Quarter
Mar 1
New
Mar 8
First Quarter

Hourly Weather History & Observations

Time (CST) Temp. Windchill Dew Point Humidity Pressure Visibility Wind Dir Wind Speed Gust Speed Precip Events Conditions
12:52 AM 15.1 °F - 12.0 °F 88% 30.01 in - Calm Calm - N/A   Unknown
1:52 AM 19.0 °F - 14.0 °F 81% 29.99 in - Calm Calm - N/A   Unknown
2:52 AM 19.0 °F - 15.1 °F 85% 29.99 in - Calm Calm - N/A   Unknown
3:52 AM 19.9 °F 10.1 °F 15.1 °F 81% 29.92 in - SSE 8.1 mph - N/A   Unknown
4:52 AM 21.9 °F - 16.0 °F 78% 29.95 in - Calm Calm - N/A   Unknown
5:52 AM 23.0 °F 13.9 °F 17.1 °F 78% 29.93 in - South 8.1 mph - N/A   Unknown
6:52 AM 23.0 °F 12.4 °F 17.1 °F 78% 29.92 in - South 10.4 mph - N/A   Unknown
7:52 AM 24.1 °F 13.7 °F 18.0 °F 77% 29.91 in - SSW 10.4 mph - N/A   Unknown
8:52 AM 25.0 °F 14.2 °F 19.0 °F 78% 29.87 in - South 11.5 mph - N/A   Unknown
9:52 AM 32.0 °F 22.5 °F 23.0 °F 69% 29.87 in - SW 12.7 mph 17.3 mph N/A   Unknown
10:52 AM 37.9 °F 30.9 °F 25.0 °F 60% 29.86 in - SW 10.4 mph 18.4 mph N/A   Unknown
11:52 AM 41.0 °F 35.8 °F 26.1 °F 55% 29.85 in - West 8.1 mph - N/A   Unknown
12:52 PM 42.1 °F 37.1 °F 26.1 °F 53% 29.81 in - WSW 8.1 mph - N/A   Unknown
1:52 PM 43.0 °F 38.8 °F 27.0 °F 53% 29.77 in - Variable 6.9 mph - N/A   Unknown
2:52 PM 46.0 °F 41.4 °F 27.0 °F 47% 29.77 in - West 9.2 mph - N/A   Unknown
3:52 PM 45.0 °F 41.8 °F 28.0 °F 52% 29.78 in - SW 5.8 mph - N/A   Unknown
4:52 PM 45.0 °F 41.8 °F 28.0 °F 52% 29.79 in - Variable 5.8 mph - N/A   Unknown
5:52 PM 42.1 °F 40.2 °F 28.0 °F 58% 29.80 in - SW 3.5 mph - N/A   Unknown
6:52 PM 39.0 °F - 28.0 °F 65% 29.81 in - Calm Calm - N/A   Unknown
7:52 PM 37.9 °F 35.5 °F 27.0 °F 65% 29.81 in - SW 3.5 mph - N/A   Unknown
8:52 PM 33.1 °F 30.0 °F 26.1 °F 75% 29.81 in - West 3.5 mph - N/A   Unknown
9:52 PM 36.0 °F 33.3 °F 26.1 °F 67% 29.81 in - West 3.5 mph - N/A   Unknown
10:52 PM 30.0 °F - 24.1 °F 79% 29.80 in - Calm Calm - N/A   Unknown
11:52 PM 30.0 °F 25.2 °F 24.1 °F 79% 29.78 in - NE 4.6 mph - N/A   Unknown